Regional Weather Roundup
Issued by NWS

Home | Current Version | Previous Version | Text Only | Print | Product List | Glossary On
Versions: 1 2 3 4 5 6 7 8 9 10 11 12 13 14 15 16 17 18 19 20 21 22 23 24 25 26 27 28 29 30 31 32 33 34 35 36 37 38 39 40 41 42 43 44 45 46 47 48 49 50
000
ASUS42 KTBW 261017
RWRFL
FLORIDA REGIONAL WEATHER ROUNDUP
NATIONAL WEATHER SERVICE TAMPA BAY RUSKIN FL
600 AM EDT SUN APR 26 2015

NOTE: "FAIR" INDICATES FEW OR NO CLOUDS BELOW 12,000 FEET WITH NO
SIGNIFICANT WEATHER AND/OR OBSTRUCTIONS TO VISIBILITY.


FLZ001>010-012>015-112-114-115-261100-
PANHANDLE FLORIDA

CITY           SKY/WX    TMP DP  RH WIND       PRES   REMARKS
PENSACOLA      CLEAR     67  66  97 NW3       29.73S
PENSACOLA NAS  CLEAR     67  66  97 NW3       29.73S
MILTON NAS     CLEAR     65  63  93 W6        29.74
CRESTVIEW      PTCLDY    59  59 100 CALM      29.75S
DUKE FIELD     FAIR      68  65  93 W3        29.73S
VALPARAISO     PTCLDY    66  65  96 NW2       29.73S
MARY ESTHER    CLEAR     67  63  86 N1        29.73
TRI COUNTY       N/A     65  65 100 CALM      29.74S
PANAMA CITY    FAIR      65  63  93 CALM      29.73S
TYNDALL AFB    CLOUDY    72  70  94 W5        29.74S
APALACHICOLA   CLOUDY    77  71  82 W6        29.74S

STATION/POSITION SKY/WX   TEMP    WIND        PRES    WAVE   SWELL
                          AIR SEA DIR/SP/G            HT/PER HT/PER
                          (F)     (DEG/KT/KT) (MB)    (FT/S) (FT/S)
30.1N   87.6W              74 74  310/  4/  4 1006.2R   3/ 5   3/ 5
29.2N   88.2W              78 77  240/ 12/ 14 1006.7R   4/ 8   3/ 8
28.8N   86.0W              77 76  240/ 16/ 17 1006.9R   5/ 7
PANAMA CITY BEAC           74 76  270/  9/ 11 1006.8R
CAPE SAN BLAS    NOT AVBL
TOWER C                    75     260/ 14/ 15 1007.0R
28.5N   84.5W              78 77  230/ 16/ 19 1006.6R   5/ 6   2/11

$$
FLZ011-016>038-118-127-128-134-139-239-261100-
NORTH FLORIDA

CITY           SKY/WX    TMP DP  RH WIND       PRES   REMARKS
MARIANNA       CLEAR     66  66 100 SW3       29.73S
TALLAHASSEE    CLEAR     67  65  93 SW5       29.74R FOG
PERRY          CLEAR     69  68  99 SW5       29.75R FOG
CROSS CITY       N/A     77  74  90 W10       29.75R
LAKE CITY      FAIR      70  68  94 W6        29.73S
GAINESVILLE    CLOUDY    73  72  96 W7        29.74R FOG
MAYPORT NAS    CLEAR     71  71 100 SW12      29.70R
JACKSONVILLE   PTCLDY    70  69  97 W8        29.70S
JAX NAS        MOCLDY    77  71  82 W14       29.72S
JAX CRAIG      PTCLDY    74  70  87 W9        29.71R
JAX CECIL      MOCLDY    73  72  94 SW12      29.73R
FERNANDINA BEA FAIR      75  72  88 W12       29.69R
ST AUGUSTINE   CLOUDY    75  73  93 W9        29.73S

STATION/POSITION SKY/WX   TEMP    WIND        PRES    WAVE   SWELL
                          AIR SEA DIR/SP/G            HT/PER HT/PER
                          (F)     (DEG/KT/KT) (MB)    (FT/S) (FT/S)
SHELL POINT                72     300/  4/  5   N/A
KEATON BEACH               77     270/ 12/ 15 1007.5R
CEDAR KEY                  78     250/ 14/ 18 1007.8R
FERNANDINA                 72 71  230/ 12/ 14 1004.5F
30.7N   81.3W                 69                N/A     2/ 5
MAYPORT                    73 67  250/ 13/ 18 1005.5F
31.4N   80.9W              71 69  250/ 16/ 17 1004.4R   2/ 5
ST AUGUSTINE               74 68  250/  8/ 10 1007.1R

$$
FLZ040-043>046-052-053-057-058-063-144-261100-
INTERIOR CENTRAL FLORIDA

CITY           SKY/WX    TMP DP  RH WIND       PRES   REMARKS
OCALA          CLOUDY    77  72  83 SW8       29.76R
THE VILLAGES     N/A     77  77 100 SW3       29.66S
LEESBURG       CLEAR     77  73  87 SW10      29.76S
SANFORD        CLOUDY    77  72  84 W9        29.75S
ORLANDO EXEC   CLOUDY    78  73  84 W12       29.76R
ORLANDO INTL   CLOUDY    78  74  87 W8        29.77R
WINTER HAVEN   CLOUDY    77  74  90 SW12      29.78S
LAKELAND       CLOUDY    75  73  94 CALM      29.77S
BARTOW         CLOUDY    75  75 100 SW8       29.78S
OKEECHOBEE     CLEAR     72  72 100 SW9       29.78S

$$
FLZ041-047-054-059-064-141-147-261100-
EAST CENTRAL FLORIDA

CITY           SKY/WX    TMP DP  RH WIND       PRES   REMARKS
DAYTONA BEACH  PTCLDY    75  73  93 SW7       29.74S
DELAND           N/A     75  73  94 SW8       29.76R
JFK SPACE CTR  CLOUDY    76  72  87 W9        29.74R
CAPE CANAVERAL CLEAR     76  73  90 W12       29.74S
PATRICK AFB    CLEAR     75  73  95 W10       29.75S
MELBOURNE      CLEAR     74  72  93 W8        29.75S
VERO BEACH     CLEAR     75  70  84 SW8       29.77R
FT PIERCE      CLEAR     76  73  91 SW8       29.77R
STUART         CLEAR     73  72  94 SW8       29.79S

STATION/POSITION SKY/WX   TEMP    WIND        PRES    WAVE   SWELL
                          AIR SEA DIR/SP/G            HT/PER HT/PER
                          (F)     (DEG/KT/KT) (MB)    (FT/S) (FT/S)
28.5N   80.2W              76 76  240/ 19/ 23 1006.9F
28.9N   78.5W              80 79  260/ 19/ 23 1005.9R
TRIDENT PIER               76 78  230/ 12/ 15 1007.8F
28.4N   80.5W                 78                N/A     2/14
27.5N   80.2W                 76                N/A     3/13   2/13

$$
FLZ050-056-061-142-242-148-248-149-249-151-251-155-255-
160-260-261100-
WEST CENTRAL FLORIDA

CITY           SKY/WX    TMP DP  RH WIND       PRES   REMARKS
CRYSTAL RIVER  CLOUDY    79  72  78 W9G20     29.75S
INVERNESS      CLOUDY   N/A N/A N/A SW6       29.76S
BROOKSVILLE    MOCLDY    78  73  84 SW8       29.78R
CLEARWATER     CLEAR     79  74  84 SW17      29.75S
TAMPA INTL     MOCLDY    79  75  87 SW16      29.77S
TAMPA EXEC     MOCLDY    81  73  78 SW6       29.77S
PLANT CITY     CLEAR     77  75  94 SW6       29.79R
MACDILL AFB    CLEAR     78  78  98 W16       29.76S
PETER O KNIGHT CLEAR     81  77  89 SW8       29.76S
ST PETERSBURG  CLEAR     80  74  81 SW12      29.74S
SARASOTA       PTCLDY    79  75  87 SW16      29.76S
VENICE         FAIR      81  77  89 SW17G25   29.80R

STATION/POSITION SKY/WX   TEMP    WIND        PRES    WAVE   SWELL
                          AIR SEA DIR/SP/G            HT/PER HT/PER
                          (F)     (DEG/KT/KT) (MB)    (FT/S) (FT/S)
CEDAR KEY                  78     250/ 14/ 18 1007.8R
28.5N   84.5W              78 77  230/ 16/ 19 1006.6R   5/ 6   2/11
27.3N   84.2W                 79                N/A     3/ 3
CLEARWATER BEACH NOT AVBL
MIDDLE TAMPA BAY           80     240/ 18/ 21 1007.6F
VENICE                     80 83  210/ 20/ 22 1008.2R

$$
FLZ066-069-070-075>078-162-262-165-265-261100-
SOUTHWEST FLORIDA AND KEYS

CITY           SKY/WX    TMP DP  RH WIND       PRES   REMARKS
PUNTA GORDA    PTCLDY    78  75  90 SW16      29.81S
FT MYERS       CLEAR     79  75  87 SW10      29.80S
SOUTHWEST INTL PTCLDY    77  74  90 SW12      29.81S
NAPLES         CLEAR     81  73  76 SW10      29.82F
MARCO ISLAND   SUNNY     79  72  78 SW8       29.82F
IMMOKALEE      SUNNY    N/A N/A N/A SW3       29.82S
MARATHON       CLEAR     82  75  79 SW6       29.84R
KEY WEST NAS   PTCLDY    82  73  74 S12       29.84R
KEY WEST INTL  CLEAR     83  75  77 S12       29.84S

STATION/POSITION SKY/WX   TEMP    WIND        PRES    WAVE   SWELL
                          AIR SEA DIR/SP/G            HT/PER HT/PER
                          (F)     (DEG/KT/KT) (MB)    (FT/S) (FT/S)
VENICE                     80 83  210/ 20/ 22 1008.2R
NAPLES                     82 84  240/ 13/ 14 1009.9F
26.0N   85.6W              80 80  200/ 10/ 12 1009.0R   2/ 4   2/ 5
DRY TORTUGAS               81     200/ 10/ 12 1009.8F
NW FL BAY                  83     230/ 12/ 14 1010.5
SAND KEY                   81     190/ 13/ 15 1010.1F
SOMBRERO KEY               82     200/ 10/ 12 1011.1R
LONG KEY                   83 86  230/ 12/ 13 1011.5R
MOLASSES REEF              81 81  250/  8/ 10 1010.6R

$$
FLZ067-068-071>074-168-172>174-261100-
SOUTHEAST FLORIDA

CITY           SKY/WX    TMP DP  RH WIND       PRES   REMARKS
W PALM BEACH   CLEAR     75  73  93 SW13      29.79F
FT LAUDER-EXEC CLEAR     75  75 100 SW8       29.82S
FT LAUDERDALE  CLEAR     78  74  87 SW9       29.82S
POMPANO BEACH  CLEAR     76  74  93 SW8       29.81F
PEMBROKE PINES CLEAR     75  73  93 SW6       29.84S
OPA LOCKA      CLEAR     76  72  87 SW6       29.84S
MIAMI          CLEAR     76  72  87 SW5       29.84S
WEST KENDALL   CLEAR     75  72  90 SW5       29.84F
HOMESTEAD      CLEAR     74  73  95 SW5       29.84S

STATION/POSITION SKY/WX   TEMP    WIND        PRES    WAVE   SWELL
                          AIR SEA DIR/SP/G            HT/PER HT/PER
                          (F)     (DEG/KT/KT) (MB)    (FT/S) (FT/S)
PORT EVERGLADES            76     230/  6/  9 1009.9F
VIRGINIA KEY               79 83  240/  9/ 10 1009.9R
LAKE WORTH                 75 80  220/ 10/ 13 1008.7F
SETTLEMENT POINT           80     240/ 21/ 23 1009.1F

$$




USA.gov is the U.S. government's official web portal to all federal, state and local government web resources and services.